#timestamp,LO_Frequency,Hit,StdDev 
1569542415.1,286047000.3,N
1569542416.0,286047000.3,N
1569542435.8,286047002.6,N
1569542455.7,286047000.1,N
1569542475.5,286047002.4,N
1569542495.3,286047001.7,N
1569542515.2,286047001.5,N
1569542535.0,286047002.4,N
1569542535.9,286047002.4,N
1569542555.8,286047002.5,N
1569542575.6,286047000.0,N
1569542595.4,286047002.6,N
1569542615.3,286047000.1,N
1569542635.1,286047003.9,N
1569542655.8,286047001.7,N
1569542675.7,286047001.5,N
1569542695.5,286047001.9,N
1569542715.4,286047003.3,N
1569542735.2,286047003.0,N
1569542755.0,286047003.7,N
1569542755.9,286047003.7,N
1569542775.8,286047001.7,N
1569542795.6,286047002.0,N
1569542815.4,286047004.3,Y
1569542835.3,286047000.3,P
1569542855.1,286047000.4,N
1569542875.9,286047002.5,P
1569542895.7,286047000.3,N
1569542915.5,286046998.7,N
1569542935.4,286046998.9,N
1569542955.2,286046998.3,N
1569542975.1,286046999.4,N
1569542976.0,286046999.4,N
1569542995.8,286047001.7,N
1569543015.6,286047002.2,N
1569543035.5,286047002.9,N
1569543055.3,286047007.2,Y
1569543075.2,286047003.2,P
1569543095.9,286047004.2,P
1569543115.7,286047003.3,N
1569543135.6,286047001.7,N
1569543155.4,286047002.3,N
1569543175.2,286047002.4,N
1569543195.1,286047001.8,N
1569543196.0,286047001.8,N
1569543215.8,286047002.1,N
1569543235.7,286047002.1,N
1569543255.5,286047002.7,N
1569543275.3,286047001.7,N
1569543295.2,286047003.4,Y
1569543315.0,286047002.8,P
1569543315.9,286047002.8,P
1569543335.8,286047001.7,P
1569543355.6,286047004.3,Y
1569543375.4,286047000.2,P
1569543395.3,286046999.8,N
1569543415.1,286046998.8,N
1569543435.9,286046999.0,N
1569543455.7,286046996.8,N
1569543475.5,286046996.5,N
1569543495.4,286046998.9,N
1569543515.2,286046999.3,N
1569543535.0,286046997.8,N
1569543535.9,286046997.8,N
1569543555.8,286047000.6,N
1569543575.6,286046999.2,N
1569543595.5,286046997.8,N
1569543615.3,286046997.9,N
1569543635.1,286046995.3,Y
1569543655.9,286047000.8,P
1569543675.7,286047000.0,N
1569543695.6,286046999.0,N
1569543715.4,286046996.8,Y
1569543735.2,286046998.7,P
1569543755.1,286046999.0,N
1569543756.0,286046999.0,N
1569543775.8,286046999.4,N
1569543795.7,286046998.8,Y
1569543815.5,286047002.7,P
1569543835.3,286047002.2,N
1569543855.2,286046999.7,N
1569543875.0,286047002.7,N
1569543875.9,286047002.7,N
1569543895.7,286047000.4,N
1569543915.6,286046999.7,N
1569543935.4,286047002.1,N
1569543955.3,286047001.6,N
1569543975.1,286047001.3,N
1569543976.0,286047001.3,N
1569543995.8,286047002.0,N
1569544015.7,286047000.6,N
1569544035.5,286047002.2,N
1569544055.4,286046999.7,N
1569544075.2,286046999.8,N
1569544095.0,286047001.1,N
1569544095.9,286047001.1,N
1569544115.8,286046998.6,N
1569544135.6,286046998.1,N
1569544155.4,286047002.3,N
1569544175.3,286047001.3,N
1569544195.1,286047003.6,N
1569544215.9,286046999.8,N
1569544235.7,286047000.5,N
1569544255.5,286047002.4,N
1569544275.4,286047002.7,N
1569544295.2,286047002.8,N
1569544315.0,286047003.7,N
1569544316.0,286047003.7,N
1569544335.8,286047004.2,N
1569544355.6,286047003.8,N
1569544375.5,286047004.5,N
1569544395.3,286047002.9,N
1569544415.1,286047005.0,Y
1569544435.9,286047003.1,P
1569544455.7,286047002.3,P
1569544475.6,286046999.8,N
1569544495.4,286046998.3,N
1569544515.2,286047000.9,N
1569544535.1,286047002.3,N
1569544536.0,286047002.3,N
1569544555.8,286047000.7,N
1569544575.7,286046999.8,N
1569544595.5,286046998.5,N
1569544615.3,286047000.6,N
1569544635.2,286046998.7,N
1569544655.0,286047001.2,N
1569544655.9,286047001.2,N
1569544675.7,286047002.3,N
1569544695.6,286047000.0,N
1569544715.4,286046998.2,N
1569544735.3,286046998.4,N
1569544755.1,286046999.1,N
1569544775.8,286046998.8,N
1569544795.7,286046999.3,N
1569544815.5,286047000.9,N
1569544835.4,286046998.6,N
1569544855.2,286046998.7,N
1569544875.0,286047000.8,N
1569544875.9,286047000.8,N
1569544895.8,286046998.7,N
1569544915.6,286047002.8,N
1569544935.4,286047002.5,N
1569544955.3,286047000.0,N
1569544975.1,286047000.8,N
1569544995.9,286047000.9,N
1569545015.7,286047001.2,N
1569545035.5,286047002.4,N
1569545055.4,286047002.1,N
1569545075.2,286047001.6,N
1569545095.0,286047001.8,N
1569545096.0,286047001.8,N
1569545115.8,286047004.1,N
1569545135.6,286047004.2,N
1569545155.5,286047005.6,Y
1569545175.3,286047003.0,P
1569545195.2,286047005.8,P
1569545215.9,286047005.1,N
1569545235.7,286047004.6,N
1569545255.6,286047004.6,N
1569545275.4,286047007.5,Y
1569545295.2,286046999.7,P
1569545315.1,286047000.2,N
1569545316.0,286047000.2,N
1569545335.8,286047002.8,N
1569545355.7,286047002.7,N
1569545375.5,286047000.7,N
1569545395.3,286047001.2,N
1569545415.2,286046999.9,N
1569545435.0,286046999.8,N
1569545435.9,286046999.8,N
1569545455.8,286046999.7,N
1569545475.6,286047002.1,N
1569545495.4,286047001.9,N
1569545515.3,286046999.7,N
1569545535.1,286047000.2,N
1569545555.8,286047000.2,N
1569545575.7,286047002.5,N
1569545595.5,286047000.2,N
1569545615.4,286047000.5,N
1569545635.2,286047000.4,N
1569545655.0,286046998.7,N
1569545655.9,286046998.7,N
1569545675.8,286046997.4,N
1569545695.6,286046997.1,N
1569545715.5,286046998.4,N
1569545735.3,286046998.8,N
1569545755.1,286046999.4,N
1569545775.9,286046997.0,N
1569545795.7,286046996.9,N
1569545815.5,286046997.6,N
1569545835.4,286046997.5,N
1569545855.2,286046999.1,N
1569545875.1,286046997.1,N
1569545876.0,286046997.1,N
1569545895.8,286046996.7,N
1569545915.6,286046997.3,N
1569545935.5,286046997.7,N
1569545955.3,286046996.2,N
1569545975.2,286046994.5,Y
1569545995.9,286046995.4,P
